| time (UTC) | temp F | wind direction | speed knots | gust knots | rain 1hr in | rain 24hr in | rain mn in | humidity % | barometer mb |
| 20260507095347 | 50 | 257 | 2.6 | 5.2 | 0.00 | 0.00 | 0.00 | 44 | 1017.6 |
| 20260507094324 | 52 | 286 | 3.5 | 6.1 | 0.00 | 0.00 | 0.00 | 46 | 1017.3 |
| 20260507093258 | 51 | 244 | 1.7 | 4.3 | 0.00 | 0.00 | 0.00 | 44 | 1017.6 |
| 20260507092223 | 52 | 292 | 1.7 | 3.5 | 0.00 | 0.00 | 0.00 | 46 | 1017.6 |
| 20260507091154 | 50 | 355 | 0.0 | 7.0 | 0.00 | 0.00 | 0.00 | 49 | 1017.6 |
| 20260507085106 | 50 | 333 | 2.6 | 5.2 | 0.00 | 0.00 | 0.00 | 50 | 1017.3 |
| 20260507084039 | 49 | 349 | 3.5 | 7.0 | 0.00 | 0.00 | 0.00 | 50 | 1017.3 |
| 20260507083014 | 49 | 333 | 1.7 | 7.0 | 0.00 | 0.00 | 0.00 | 48 | 1017.3 |
| 20260507081947 | 48 | 314 | 3.5 | 7.0 | 0.00 | 0.00 | 0.00 | 47 | 1017.3 |
| 20260507080916 | 48 | 314 | 2.6 | 7.0 | 0.00 | 0.00 | 0.00 | 47 | 1017.3 |
| 20260507074833 | 47 | 313 | 2.6 | 7.8 | 0.00 | 0.00 | 0.00 | 48 | 1016.9 |
| 20260507073807 | 47 | 303 | 2.6 | 8.7 | 0.00 | 0.00 | 0.00 | 48 | 1016.9 |
| 20260507071723 | 46 | 310 | 2.6 | 7.0 | 0.00 | 0.00 | 0.00 | 50 | 1016.9 |
| 20260507070655 | 46 | 340 | 3.5 | 7.8 | 0.00 | 0.00 | 0.00 | 52 | 1016.6 |
| 20260507065631 | 45 | 300 | 2.6 | 8.7 | 0.00 | 0.00 | 0.00 | 53 | 1016.6 |
| 20260507064544 | 45 | 338 | 2.6 | 9.6 | 0.00 | 0.00 | 0.00 | 56 | 1016.6 |
| 20260507063525 | 45 | 320 | 3.5 | 8.7 | 0.00 | 0.00 | 0.00 | 56 | 1016.6 |
| 20260507062454 | 44 | 351 | 0.9 | 7.0 | 0.00 | 0.00 | 0.00 | 55 | 1016.6 |
| 20260507061425 | 44 | 350 | 3.5 | 7.0 | 0.00 | 0.00 | 0.00 | 55 | 1016.3 |
| 20260507060353 | 44 | 5 | 3.5 | 8.7 | 0.00 | 0.00 | 0.00 | 57 | 1016.3 |
| 20260507055327 | 43 | 342 | 3.5 | 8.7 | 0.00 | 0.00 | 0.00 | 58 | 1016.3 |
| 20260507054259 | 42 | 333 | 2.6 | 7.0 | 0.00 | 0.00 | 0.00 | 58 | 1016.3 |
| 20260507053236 | 42 | 347 | 2.6 | 7.8 | 0.00 | 0.00 | 0.00 | 59 | 1016.3 |
| 20260507051154 | 42 | 327 | 2.6 | 7.8 | 0.00 | 0.00 | 0.00 | 59 | 1015.9 |
| 20260507050132 | 42 | 342 | 3.5 | 7.8 | 0.00 | 0.00 | 0.00 | 58 | 1015.9 |
| 20260507045102 | 42 | 350 | 3.5 | 8.7 | 0.00 | 0.00 | 0.00 | 58 | 1015.9 |
| 20260507044035 | 41 | 13 | 7.8 | 9.6 | 0.00 | 0.00 | 0.00 | 59 | 1015.9 |
| 20260507043007 | 41 | 321 | 3.5 | 8.7 | 0.00 | 0.00 | 0.00 | 58 | 1015.6 |
| 20260507041939 | 41 | 5 | 3.5 | 7.0 | 0.00 | 0.00 | 0.00 | 59 | 1015.6 |
| 20260507035857 | 41 | 23 | 4.3 | 5.2 | 0.00 | 0.00 | 0.00 | 59 | 1015.6 |
| 20260507033817 | 41 | 337 | 3.5 | 7.8 | 0.00 | 0.00 | 0.00 | 59 | 1015.2 |
| 20260507032755 | 41 | 333 | 2.6 | 7.0 | 0.00 | 0.00 | 0.00 | 59 | 1015.2 |
| 20260507031724 | 42 | 323 | 3.5 | 7.8 | 0.00 | 0.00 | 0.00 | 58 | 1015.2 |
| 20260507030657 | 42 | 46 | 2.6 | 7.0 | 0.00 | 0.00 | 0.00 | 55 | 1015.2 |
| 20260507025630 | 42 | 336 | 5.2 | 9.6 | 0.00 | 0.00 | 0.00 | 56 | 1015.2 |
| 20260507024601 | 42 | 330 | 2.6 | 8.7 | 0.00 | 0.00 | 0.00 | 57 | 1014.9 |
| 20260507023533 | 42 | 340 | 5.2 | 7.8 | 0.00 | 0.00 | 0.00 | 56 | 1014.9 |
| 20260507022506 | 42 | 43 | 3.5 | 8.7 | 0.00 | 0.00 | 0.00 | 55 | 1014.9 |
| 20260507021445 | 42 | 338 | 5.2 | 9.6 | 0.00 | 0.00 | 0.00 | 54 | 1014.9 |
| 20260507020417 | 42 | 316 | 5.2 | 7.0 | 0.00 | 0.00 | 0.00 | 55 | 1014.9 |
| 20260507015351 | 42 | 360 | 3.5 | 8.7 | 0.00 | 0.00 | 0.00 | 55 | 1014.9 |
| 20260507014342 | 42 | 326 | 4.3 | 7.8 | 0.00 | 0.00 | 0.00 | 54 | 1014.6 |
| 20260507013316 | 42 | 325 | 3.5 | 7.0 | 0.00 | 0.00 | 0.00 | 55 | 1014.6 |
| 20260507012248 | 43 | 331 | 2.6 | 7.0 | 0.00 | 0.00 | 0.00 | 58 | 1014.6 |
| 20260507011225 | 42 | 41 | 4.3 | 4.3 | 0.00 | 0.00 | 0.00 | 59 | 1014.6 |
| 20260507010155 | 43 | 333 | 3.5 | 7.0 | 0.00 | 0.00 | 0.00 | 60 | 1014.2 |
| 20260507004106 | 43 | 333 | 0.9 | 4.3 | 0.00 | 0.00 | 0.00 | 61 | 1014.2 |
| 20260507003041 | 43 | 355 | 3.5 | 4.3 | 0.00 | 0.00 | 0.00 | 60 | 1014.2 |
| 20260507002026 | 43 | 351 | 3.5 | 5.2 | 0.00 | 0.00 | 0.00 | 60 | 1014.2 |
| 20260507000956 | 43 | 334 | 3.5 | 7.8 | 0.00 | 0.00 | 0.00 | 59 | 1014.2 |
| 20260506235935 | 43 | 346 | 1.7 | 7.8 | 0.00 | 0.00 | 0.00 | 59 | 1013.9 |
| 20260506233850 | 43 | 360 | 2.6 | 8.7 | 0.00 | 0.00 | 0.00 | 56 | 1013.9 |
| 20260506232823 | 44 | 342 | 1.7 | 5.2 | 0.00 | 0.00 | 0.00 | 57 | 1013.9 |
| 20260506231756 | 44 | 315 | 1.7 | 10.4 | 0.00 | 0.00 | 0.00 | 56 | 1013.9 |
| 20260506230726 | 44 | 347 | 1.7 | 6.1 | 0.00 | 0.00 | 0.00 | 56 | 1013.5 |
| 20260506224706 | 44 | 16 | 3.5 | 7.0 | 0.00 | 0.00 | 0.00 | 57 | 1013.5 |
| 20260506223638 | 45 | 340 | 2.6 | 4.3 | 0.00 | 0.00 | 0.00 | 57 | 1013.5 |
| 20260506222614 | 45 | 327 | 1.7 | 7.8 | 0.00 | 0.00 | 0.00 | 54 | 1013.5 |
| 20260506220531 | 45 | 30 | 1.7 | 7.8 | 0.00 | 0.00 | 0.00 | 54 | 1013.2 |
| 20260506215530 | 45 | 340 | 3.5 | 7.0 | 0.00 | 0.00 | 0.00 | 53 | 1013.2 |
| 20260506214500 | 45 | 320 | 1.7 | 4.3 | 0.00 | 0.00 | 0.00 | 53 | 1013.2 |
| 20260506213436 | 46 | 333 | 1.7 | 5.2 | 0.00 | 0.00 | 0.00 | 53 | 1012.9 |
| 20260506212410 | 46 | 17 | 0.9 | 3.5 | 0.00 | 0.00 | 0.00 | 52 | 1012.9 |
| 20260506211342 | 46 | 331 | 0.9 | 5.2 | 0.00 | 0.00 | 0.00 | 53 | 1012.9 |
| 20260506210315 | 47 | 19 | 1.7 | 7.8 | 0.00 | 0.00 | 0.00 | 54 | 1012.9 |
| 20260506205253 | 47 | 350 | 0.9 | 7.8 | 0.00 | 0.00 | 0.00 | 53 | 1012.9 |
| 20260506204219 | 47 | 360 | 1.7 | 7.8 | 0.00 | 0.00 | 0.00 | 52 | 1012.5 |
| 20260506203146 | 47 | 331 | 3.5 | 5.2 | 0.00 | 0.00 | 0.00 | 55 | 1012.5 |
| 20260506202117 | 47 | 98 | 0.9 | 7.0 | 0.00 | 0.00 | 0.00 | 52 | 1012.2 |
| 20260506200015 | 47 | 258 | 1.7 | 2.6 | 0.00 | 0.00 | 0.00 | 52 | 1012.2 |
| 20260506194947 | 48 | 258 | 0.9 | 2.6 | 0.00 | 0.00 | 0.00 | 51 | 1012.2 |
| 20260506191839 | 49 | 211 | 0.0 | 2.6 | 0.00 | 0.00 | 0.00 | 51 | 1012.2 |
| 20260506190810 | 49 | 212 | 0.9 | 6.1 | 0.00 | 0.00 | 0.00 | 50 | 1012.2 |
| 20260506185739 | 49 | 271 | 0.9 | 5.2 | 0.00 | 0.00 | 0.00 | 51 | 1012.2 |
| 20260506184710 | 49 | 216 | 1.7 | 5.2 | 0.00 | 0.00 | 0.00 | 51 | 1012.2 |
| 20260506183639 | 49 | 252 | 0.9 | 3.5 | 0.00 | 0.00 | 0.00 | 50 | 1011.9 |
| 20260506181553 | 49 | 215 | 1.7 | 4.3 | 0.00 | 0.00 | 0.00 | 48 | 1011.9 |
| 20260506180531 | 49 | 198 | 4.3 | 5.2 | 0.00 | 0.00 | 0.00 | 49 | 1011.9 |
| 20260506175455 | 49 | 214 | 0.9 | 5.2 | 0.00 | 0.00 | 0.00 | 53 | 1011.9 |
| 20260506174438 | 49 | 218 | 4.3 | 7.0 | 0.00 | 0.00 | 0.00 | 54 | 1011.9 |
| 20260506172405 | 49 | 167 | 3.5 | 7.0 | 0.00 | 0.00 | 0.00 | 47 | 1011.9 |
| 20260506171353 | 49 | 235 | 7.8 | 7.8 | 0.00 | 0.00 | 0.00 | 48 | 1011.9 |
| 20260506170328 | 49 | 159 | 4.3 | 7.0 | 0.00 | 0.00 | 0.00 | 52 | 1011.9 |
| 20260506165256 | 50 | 180 | 2.6 | 7.8 | 0.00 | 0.00 | 0.00 | 51 | 1011.9 |
| 20260506164225 | 50 | 177 | 2.6 | 7.8 | 0.00 | 0.00 | 0.00 | 49 | 1011.9 |
| 20260506163156 | 50 | 188 | 3.5 | 7.8 | 0.00 | 0.00 | 0.00 | 51 | 1011.9 |
| 20260506161113 | 50 | 207 | 3.5 | 7.0 | 0.00 | 0.00 | 0.00 | 51 | 1011.9 |
| 20260506160044 | 50 | 167 | 4.3 | 7.8 | 0.00 | 0.00 | 0.00 | 48 | 1011.9 |
| 20260506154939 | 50 | 215 | 1.7 | 7.8 | 0.00 | 0.00 | 0.00 | 46 | 1011.9 |
| 20260506153918 | 50 | 196 | 7.0 | 8.7 | 0.00 | 0.00 | 0.00 | 47 | 1011.9 |
| 20260506152854 | 50 | 169 | 5.2 | 8.7 | 0.00 | 0.00 | 0.00 | 48 | 1011.9 |
| 20260506151830 | 51 | 177 | 5.2 | 10.4 | 0.00 | 0.00 | 0.00 | 45 | 1011.9 |
| 20260506150806 | 50 | 183 | 5.2 | 9.6 | 0.00 | 0.00 | 0.00 | 46 | 1012.2 |
| 20260506145738 | 51 | 186 | 5.2 | 10.4 | 0.00 | 0.00 | 0.00 | 45 | 1012.2 |
| 20260506144644 | 51 | 152 | 4.3 | 9.6 | 0.00 | 0.00 | 0.00 | 42 | 1012.2 |
| 20260506143543 | 51 | 167 | 5.2 | 9.6 | 0.00 | 0.00 | 0.00 | 42 | 1012.2 |
| 20260506142524 | 52 | 213 | 5.2 | 9.6 | 0.00 | 0.00 | 0.00 | 45 | 1012.2 |
| 20260506140455 | 53 | 214 | 1.7 | 7.8 | 0.00 | 0.00 | 0.00 | 39 | 1012.2 |
| 20260506135435 | 51 | 200 | 7.0 | 13.0 | 0.00 | 0.00 | 0.00 | 42 | 1012.2 |
| 20260506134407 | 53 | 203 | 3.5 | 13.0 | 0.00 | 0.00 | 0.00 | 37 | 1012.2 |
| 20260506133340 | 53 | 155 | 2.6 | 8.7 | 0.00 | 0.00 | 0.00 | 34 | 1012.2 |
| 20260506132313 | 55 | 176 | 0.9 | 4.3 | 0.00 | 0.00 | 0.00 | 32 | 1012.2 |
| 20260506131247 | 53 | 11 | 2.6 | 6.1 | 0.00 | 0.00 | 0.00 | 32 | 1012.2 |
| 20260506125156 | 53 | 28 | 4.3 | 6.1 | 0.00 | 0.00 | 0.00 | 30 | 1012.5 |
| 20260506124130 | 52 | 328 | 0.9 | 6.1 | 0.00 | 0.00 | 0.00 | 31 | 1012.5 |
| 20260506123102 | 54 | 38 | 0.9 | 6.1 | 0.00 | 0.00 | 0.00 | 32 | 1012.5 |
| 20260506122030 | 52 | 348 | 1.7 | 6.1 | 0.00 | 0.00 | 0.00 | 28 | 1012.5 |
| 20260506120957 | 52 | 152 | 0.0 | 4.3 | 0.00 | 0.00 | 0.00 | 28 | 1012.9 |
| 20260506115935 | 52 | 308 | 0.0 | 4.3 | 0.00 | 0.00 | 0.00 | 29 | 1012.9 |
| 20260506114913 | 52 | 34 | 1.7 | 4.3 | 0.00 | 0.00 | 0.00 | 33 | 1012.9 |
| 20260506113839 | 51 | 340 | 1.7 | 5.2 | 0.00 | 0.00 | 0.00 | 34 | 1012.9 |
| 20260506112734 | 50 | 275 | 0.0 | 5.2 | 0.00 | 0.00 | 0.00 | 34 | 1012.9 |
| 20260506111707 | 51 | 248 | 0.9 | 4.3 | 0.00 | 0.00 | 0.00 | 35 | 1013.2 |
| 20260506105623 | 50 | 243 | 2.6 | 5.2 | 0.00 | 0.00 | 0.00 | 34 | 1013.2 |
| 20260506104556 | 49 | 254 | 2.6 | 6.1 | 0.00 | 0.00 | 0.00 | 34 | 1013.2 |
| 20260506103525 | 50 | 251 | 0.9 | 4.3 | 0.00 | 0.00 | 0.00 | 33 | 1013.2 |
| 20260506102456 | 49 | 346 | 2.6 | 4.3 | 0.00 | 0.00 | 0.00 | 35 | 1013.2 |
| 20260506101429 | 50 | 250 | 0.0 | 6.1 | 0.00 | 0.00 | 0.00 | 39 | 1013.2 |
| 20260506100401 | 50 | 342 | 1.7 | 5.2 | 0.00 | 0.00 | 0.00 | 43 | 1013.2 |